| time (UTC) | temp C | wind direction | speed KPH | gust KPH | rain 1hr cm | rain 24hr cm | rain mn cm | humidity % | barometer mb |
| 20260504013053 | 13 | 0 | 0.0 | 0.0 | 0.00 | 0.03 | 0.03 | 60 | 1016.4 |
| 20260504011547 | 13 | 0 | 0.0 | 0.0 | 0.00 | 0.03 | 0.03 | 58 | 1016.2 |
| 20260504010050 | 14 | 0 | 0.0 | 0.0 | 0.00 | 0.03 | 0.03 | 57 | 1016.4 |
| 20260504004547 | 14 | 0 | 0.0 | 0.0 | 0.00 | 0.05 | 0.03 | 56 | 1016.4 |
| 20260504003044 | 15 | 0 | 0.0 | 0.0 | 0.00 | 0.05 | 0.03 | 55 | 1016.3 |
| 20260504001600 | 15 | 0 | 0.0 | 0.0 | 0.00 | 0.05 | 0.03 | 53 | 1016.8 |
| 20260504000047 | 16 | 0 | 0.0 | 0.0 | 0.00 | 0.05 | 0.03 | 51 | 1016.9 |
| 20260503234547 | 16 | 0 | 0.0 | 6.4 | 0.00 | 0.05 | 0.03 | 50 | 1017.1 |
| 20260503233046 | 16 | 263 | 3.2 | 9.7 | 0.00 | 0.05 | 0.03 | 46 | 1017.0 |
| 20260503231553 | 17 | 236 | 4.8 | 8.0 | 0.00 | 0.05 | 0.03 | 48 | 1016.9 |
| 20260503230045 | 17 | 0 | 1.6 | 6.4 | 0.00 | 0.05 | 0.03 | 49 | 1017.1 |
| 20260503224541 | 17 | 0 | 0.0 | 4.8 | 0.00 | 0.05 | 0.03 | 46 | 1017.3 |
| 20260503223048 | 17 | 223 | 1.6 | 8.0 | 0.00 | 0.05 | 0.03 | 45 | 1017.5 |
| 20260503221548 | 17 | 308 | 3.2 | 6.4 | 0.00 | 0.05 | 0.03 | 41 | 1017.7 |
| 20260503220049 | 18 | 265 | 3.2 | 9.7 | 0.00 | 0.05 | 0.03 | 41 | 1017.8 |
| 20260503214543 | 18 | 311 | 3.2 | 9.7 | 0.00 | 0.05 | 0.03 | 43 | 1017.9 |
| 20260503213046 | 18 | 277 | 3.2 | 9.7 | 0.00 | 0.05 | 0.03 | 46 | 1018.1 |
| 20260503211555 | 18 | 271 | 4.8 | 11.3 | 0.00 | 0.05 | 0.03 | 46 | 1018.2 |
| 20260503210047 | 17 | 0 | 1.6 | 16.1 | 0.00 | 0.05 | 0.03 | 46 | 1018.3 |
| 20260503204554 | 17 | 256 | 4.8 | 12.9 | 0.00 | 0.05 | 0.03 | 46 | 1018.5 |
| 20260503203049 | 17 | 255 | 4.8 | 11.3 | 0.00 | 0.05 | 0.03 | 50 | 1018.6 |
| 20260503201548 | 17 | 273 | 3.2 | 11.3 | 0.00 | 0.05 | 0.03 | 50 | 1019.1 |
| 20260503200052 | 17 | 263 | 1.6 | 12.9 | 0.00 | 0.05 | 0.03 | 54 | 1019.3 |
| 20260503194548 | 17 | 275 | 6.4 | 14.5 | 0.00 | 0.05 | 0.03 | 52 | 1019.6 |
| 20260503193100 | 16 | 128 | 4.8 | 11.3 | 0.00 | 0.05 | 0.03 | 52 | 1019.9 |
| 20260503191550 | 16 | 231 | 4.8 | 12.9 | 0.00 | 0.05 | 0.03 | 53 | 1020.0 |
| 20260503190059 | 16 | 312 | 3.2 | 11.3 | 0.00 | 0.05 | 0.03 | 53 | 1020.2 |
| 20260503184548 | 15 | 328 | 1.6 | 12.9 | 0.00 | 0.05 | 0.03 | 58 | 1020.4 |
| 20260503183101 | 15 | 233 | 3.2 | 11.3 | 0.00 | 0.05 | 0.03 | 56 | 1020.6 |
| 20260503181545 | 15 | 327 | 4.8 | 9.7 | 0.00 | 0.05 | 0.03 | 53 | 1020.7 |
| 20260503180057 | 14 | 134 | 1.6 | 11.3 | 0.00 | 0.05 | 0.03 | 58 | 1020.8 |
| 20260503174546 | 15 | 0 | 3.2 | 12.9 | 0.00 | 0.05 | 0.03 | 57 | 1021.1 |
| 20260503173108 | 13 | 310 | 4.8 | 11.3 | 0.00 | 0.05 | 0.03 | 59 | 1021.3 |
| 20260503171552 | 13 | 232 | 3.2 | 9.7 | 0.00 | 0.05 | 0.03 | 64 | 1021.4 |
| 20260503140104 | 6 | 134 | 3.2 | 11.3 | 0.00 | 0.05 | 0.03 | 99 | 1022.5 |
| 20260503081548 | 4 | 0 | 0.0 | 0.0 | 0.00 | 0.05 | 0.03 | 96 | 1020.4 |
| 20260503071550 | 5 | 0 | 0.0 | 0.0 | 0.03 | 0.05 | 0.03 | 96 | 1020.1 |
| 20260503054546 | 6 | 0 | 0.0 | 0.0 | 0.00 | 0.03 | 0.00 | 95 | 1019.9 |
| 20260503053047 | 6 | 0 | 0.0 | 0.0 | 0.00 | 0.03 | 0.00 | 96 | 1019.8 |
| 20260503051550 | 6 | 0 | 0.0 | 0.0 | 0.00 | 0.03 | 0.00 | 96 | 1019.6 |
| 20260503050046 | 6 | 0 | 0.0 | 0.0 | 0.00 | 0.03 | 0.00 | 96 | 1019.5 |
| 20260503044548 | 7 | 0 | 0.0 | 0.0 | 0.00 | 0.03 | 0.03 | 96 | 1019.4 |
| 20260503043048 | 7 | 0 | 0.0 | 0.0 | 0.00 | 0.03 | 0.03 | 95 | 1019.4 |
| 20260503041545 | 7 | 0 | 0.0 | 0.0 | 0.00 | 0.03 | 0.03 | 95 | 1019.4 |
| 20260503040050 | 7 | 0 | 0.0 | 0.0 | 0.00 | 0.03 | 0.03 | 95 | 1019.3 |
| 20260503034549 | 7 | 0 | 0.0 | 0.0 | 0.00 | 0.03 | 0.03 | 94 | 1019.2 |
| 20260503033048 | 7 | 0 | 0.0 | 0.0 | 0.00 | 0.03 | 0.03 | 92 | 1019.1 |
| 20260503031545 | 7 | 0 | 0.0 | 0.0 | 0.00 | 0.03 | 0.03 | 92 | 1019.1 |
| 20260503030046 | 7 | 0 | 0.0 | 0.0 | 0.00 | 0.03 | 0.03 | 92 | 1019.1 |
| 20260503024545 | 7 | 0 | 0.0 | 0.0 | 0.00 | 0.03 | 0.03 | 91 | 1019.1 |
| 20260503023052 | 7 | 0 | 0.0 | 0.0 | 0.00 | 0.03 | 0.03 | 91 | 1019.0 |
| 20260503021551 | 8 | 0 | 0.0 | 1.6 | 0.00 | 0.03 | 0.03 | 90 | 1018.7 |
| 20260503020054 | 8 | 0 | 0.0 | 0.0 | 0.00 | 0.03 | 0.03 | 89 | 1018.6 |
| 20260503014617 | 8 | 0 | 0.0 | 0.0 | 0.00 | 0.03 | 0.03 | 88 | 1018.7 |